AAUSAT CUBESAT 2

Satellite information

Favourite Embed

Satellite Type and Status

PAYLOADIN ORBIT

Key statistics

Satellite AAUSAT CUBESAT 2 at a glance.

Uptime

6223

Days in orbit

Revolutions

≈ 16.0

Per day

Orbit

SSO

Sun Synchronous Orbit

Inclination

97.6

Latest

Satellite identification and parameters

Extended collection of information and parameters for AAUSAT CUBESAT 2.

Object identification

Identified? True

Debris? False

Object name: AAUSAT CUBESAT 2

International designator: 2008-021F

Object number (NORAD): 32788

Object ID (CCSDS): 32788

Country: DENMARK (DEN)

Current information (Y/N): Y

RCS size: SMALL

Orbital parameters

Period: 90.187 minutes

Inclination: 97.5889 deg

SMA: 6661.745 km

Apoapsis: 289.647 km

Periapsis: 277.572 km

RAAN: 130.3744 deg

Eccentricy: 0.0009063

Argument of periapsis: 157.2173 deg

Mean anomaly: 202.9506 deg

Mean motion: 15.96690575 rev/day

Mean motion (dot): 0.00859474 rev/day2

B* drag term: 0.0020397 1/REarth

Two-line elements (TLE)

Creation date: May 12, 2025, 2:31 a.m.

Reference frame: TEME

Reference center: EARTH

Epoch: May 11, 2025, 10:37 p.m. UTC

TLE line 0: 0 AAUSAT CUBESAT 2

TLE line 1: 1 32788U 08021F 25131.94274640 .00859474 33493-3 20397-2 0 9992

TLE line 2: 2 32788 97.5889 130.3744 0009063 157.2173 202.9506 15.96690575928884

Live tracking on map

Real-time ground track for satellite AAUSAT CUBESAT 2.

In-orbit conjunctions

There are no conjunctions computed for AAUSAT CUBESAT 2, at the moment. Check back to stay up to date, as we update our databases every day.

Go to all conjunctions

Associated space launch

Indian Earth observation satellite. Launched alongside 9 nanosatellites.

AAUSAT CUBESAT 2 was lifted into orbit during the mission ‘PSLV | Cartosat 2A’, on board a PSLV space rocket.

The launch took place on April 28, 2008, 3:53 a.m. from Satish Dhawan Space Centre Second Launch Pad.

For more information about the launch, click the button.

Launch to space PSLV | Cartosat 2A
PSLV | Cartosat 2A

Agency: N/A

Status: Launch Successful

Launch date: April 28, 2008, 3:53 a.m. UTC

Rocket: PSLV

Launch pad: Satish Dhawan Space Centre Second Launch Pad

Location: Satish Dhawan Space Centre, India

...

Latest news about this satellite

There are no fresh news available about this satellite. Check back as we update our databases every day.


Newsletter sign-up

Weekly statistics, charts and insights to help you stay on top of the space industry.